Погода в Чоме

Замбия     16°48′47″S   26°58′53″E
темп.,
°C
ветер,
м/с
пор.,
м/с
влажн.,
%
обл.,
%
осадки,
мм/ч
давл.,
гПа
погр.,
м
25 июля, вс
вс2523:00+10с23860 0.0 102875
02:00+11в2578100 0.0 1027223
05:00+11вюв4981100 0.1 1027729
08:00+10вюв4877100 0.3 1030675
11:00+11вюв467292 0.1 1030854
14:00+17вюв46456 0.1 10251457
17:00+15вюв46420 0.0 10241457
20:00+10юв22600 0.0 102716
26 июля, пн
пн2623:00+9юв23590 0.0 102759
02:00+8юв412640 0.0 1027504
05:00+7юв310740 0.0 1028307
08:00+9вюв49725 0.0 1029546
11:00+16в57400 0.0 10271424
14:00+19вюв56300 0.0 10231779
17:00+16вюв45300 0.0 10231466
20:00+10юв22490 0.0 102618
27 июля, вт
вт2723:00+10вюв11500 0.0 102610
02:00+8вюв395733 0.0 1025175
05:00+9всв41280100 0.0 1025473
08:00+11всв4107712 0.0 1027623
11:00+17в574495 0.0 10251511
14:00+20в46325 0.0 10211701
17:00+18в453676 0.0 10211384
20:00+11юв2256100 0.0 102329
28 июля, ср
ср2823:00+10всв225856 0.0 102412
02:00+9всв2250100 0.0 102315
05:00+8вюв225442 0.0 102317
08:00+12в4106475 0.0 1024482
11:00+19всв563664 0.0 10231303
14:00+22в442616 0.0 10181822
17:00+20вюв443024 0.0 10181358
20:00+12юв37515 0.0 1022109
29 июля, чт
чт2923:00+12юв225185 0.0 102317
02:00+11вюв125781 0.0 102210
05:00+10вюв226130 0.0 102213
08:00+14вюв375212 0.0 1024224
11:00+21вюв453098 0.0 10221488
14:00+24вюв442228 0.0 10192004
17:00+21вюв44274 0.0 10201498
20:00+14юв22460 0.0 102314